    Schultz, I. Smith.  Measurers K. Chambers, T. de Boer, J. Fairlamb, H.
    Gao, M. Huber, C.-C. Lin, E. Magnier, Y. Ramanjooloo, R. Wainscoat, R.
    Weryk.  1.8-m Ritchey-Chretien + CCD.
T14 Canada-France-Hawaii Telescope, Maunakea.  Observers R. Wainscoat, A.
    Acohido, T. Burdullis.  Measurers R. Weryk, R. Wainscoat.  3.6-m f/4.1
    reflector + CCD.
Z84 Calar Alto-Schmidt.  Observers M. Micheli, R. Kresken, F. Ocana, L.
    Conversi.  0.8-m f/3 Schmidt + CCD, 0.8-m f/3 Schmidt + CCD NET Gaia-DR2.
Orbital elements:
2024 LY9                                                                        
Epoch 2024 Mar. 31.0 TT = JDT 2460400.5                 Veres                   
M 356.75814              (2000.0)            P               Q                  
n   0.00213742     Peri.  208.60321     +0.04107389     -0.86615692             
a  59.6865493      Node   116.79027     -0.77708307     +0.28565932             
e   0.8378620      Incl.  146.08427     -0.62805640     -0.41008651             
P 461              H   11.02          G   0.15           U   2                  
Residuals in seconds of arc
200918 F51  0.1+  0.0     220821 F51  0.2-  0.3-    230820 F51  0.0   0.2+
200918 F51  0.2+  0.1+    220821 F51  0.2+  0.0     230820 F51  0.1-  0.3-
200918 F51  0.1-  0.2-    220829 F51  0.0   0.1+    230820 F51  0.2-  0.2+
200918 F51  0.1-  0.0     220829 F51  0.0   0.1+    230917 F52  0.1+  0.3+
200922 F51  0.0   0.2+    220902 F52  0.0   0.1-    230917 F52  0.2+  0.2+
200922 F51  0.0   0.3+    220902 F52  0.0   0.2+    230917 F52  0.1+  0.0
200923 F51  0.0   0.1-    220902 F52  0.1-  0.1-    230917 F52  0.1+  0.0
200923 F51  0.1+  0.3-    220902 F52  0.1+  0.1+    230917 F51  0.1+  0.0
210816 F51  0.1-  0.1-    220916 F51  0.2-  0.0     230917 F51  0.1+  0.0
210816 F51  0.0   0.2-    220916 F51  0.3+  0.4-    231105 F51  0.1+  0.1+
210816 F51  0.0   0.1+    220916 F51  0.2+  0.1-    231105 F51  0.1-  0.0
210831 F52  0.1+  0.1-    220916 F51  0.1+  0.0     231105 F51  0.1+  0.0
210831 F52  0.0   0.4+    220926 F51  0.0   0.2+    231105 F51  0.1+  0.1-
210910 F52  0.0   0.2+    220926 F51  0.0   0.0     240615 F52  0.0   0.0
210910 F52  0.0   0.0     230531 F51  0.0   0.1+    240615 F52  0.1-  0.1+
210910 F52  0.6-  0.3-    230619 F52  0.2-  0.1-    240615 F52  0.0   0.1-
210910 F51  0.0   0.0     230619 F52  0.1+  0.0     240615 F52  0.0   0.0
210913 F51  0.0   0.2+    230619 F52  0.0   0.0     240616 F52  0.1+  0.0
210913 F51  0.1-  0.1+    230619 F52  0.1-  0.1+    240616 F52  0.1+  0.1+
210913 F51  0.2-  0.1+    230620 F52  0.1+  0.0     240618 Z84  0.0   0.1+
210927 F52  0.0   0.1-    230620 F52  0.1-  0.0     240618 Z84  0.0   0.2-
210927 F52  0.1+  0.2+    230620 F52  0.1+  0.1+    240618 Z84  0.1+  0.2-
211007 F51  0.0   0.0     230620 F52  0.1-  0.0     240629 T14  0.1+  0.0
211011 F51  0.1+  0.1+    230627 F52  0.2+  0.0     240629 T14  0.0   0.0
211011 F51  0.2+  0.1-    230627 F52  0.1-  0.1+    240629 T14  0.0   0.0
211011 F51  0.1-  0.1+    230627 F52  0.0   0.1-    240703 F51  0.1+  0.1+
211011 F51  0.0   0.1-    230627 F52  0.0   0.1+    240703 F51  0.1+  0.1+
211107 F51  0.0   0.0     230716 F52  0.1+  0.2+    240703 F51  0.1+  0.0
211107 F51  0.3-  0.1-    230716 F52  0.1+  0.0     240703 F51  0.0   0.1-
211107 F51  0.2-  0.2-    230724 F51  0.0   0.1+    240704 F51  0.1+  0.0
220629 F52  0.0   0.3+    230724 F51  0.3+  0.3-    240704 F51  0.1+  0.4+
220629 F52  0.3-  0.1+    230724 F51  0.2+  0.1-    240709 Z84  0.0   0.2+
220629 F52  0.0   0.1-    230728 F52  0.2+  0.0     240709 Z84  0.0   0.0
220731 F52  0.1+  0.1-    230728 F52  0.2+  0.1-    240709 Z84  0.1+  0.1+
220731 F52  0.0   0.4-    230728 F52  0.2+  0.2+
220731 F52  0.0   0.0     230820 F51  0.0   0.1-
Ephemeris:
2024 LY9                 a,e,i = 59.69, 0.84, 146                q = 9.6775
Date    TT    R. A. (2000) Decl.     Delta      r    Elong.  Phase     V
2024 06 11    21 24 38.4 +00 36 26  11.5507 12.0231   115.5     4.4    22.1
...
2024 06 26    21 20 27.3 +00 18 25  11.3000 11.9812   130.2     3.7    22.0
...
2024 07 04    21 17 47.1 +00 05 16  11.1842 11.9589   138.0     3.3    22.0
...
2024 07 10    21 15 36.6 -00 06 14  11.1074 11.9423   143.7     2.9    21.9
2024 07 11    21 15 14.1 -00 08 17  11.0955 11.9395   144.7     2.8    21.9
2024 07 12    21 14 51.4 -00 10 22  11.0838 11.9367   145.6     2.8    21.9
...
2024 07 18    21 12 31.2 -00 23 40  11.0197 11.9201   151.2     2.4    21.9
...
2024 07 26    21 09 15.6 -00 43 21  10.9504 11.8980   158.0     1.8    21.8
...
2024 08 10    21 02 53.9 -01 25 38  10.8737 11.8567   165.2     1.2    21.7
M. P. C. Staff               (C) Copyright 2024 MPC           M.P.E.C. 2024-N129
    
    
More information about the Iaude
mailing list